STARLINK-34343, 64157

Orbit data source: Space-Track

STARLINK-34343, 64157 is a payload satellite owned by SpaceX/Seattle (US) in SSO that was launched on Tue, 27 May 2025 UTC via an FALCON 9 launch vehicle from the Air Force Western Test Range (AFWTR).

On March 29, 2026, Starlink satellite 34343 (NORAD 64157) experienced an on-orbit anomaly and a fragmentation event, resulting in a loss of communication at ~560 km altitude. LeoLabs detected tens of objects near the satellite. SpaceX states there is no risk to the International Space Station or NASA's Artemis II mission.

Loading next visibility...
Identifier
64157, 2025-112M
Orbit
SSO
Country
Flag of USUS
Related business
Manufacturer
SpaceX/Seattle
Mission
Non-operational Commercial Communications
Bus & Motor
STARLINK V2MO, Unknown motor
Mass
575 kg wet, ~530 kg dry
Launch date (UTC)
2025-05-27 (11 months ago)
Launch vehicle
FALCON 9
Launch site
Air Force Western Test Range (AFWTR)
Object type
Payload
Rocket body
Debris
Shape & HBR
Box + 2 Pan, 17.7 m
Radar Cross Section
36.964 m², Large (>1 m²)

Expand to show TLE details & history
Last TLE update: 11 hours ago

TLE from 11 hours ago
0 STARLINK-34343
1 64157U 25112M   26102.11791029  .00011384  00000-0  86768-3 0  9990
2 64157  97.6162 154.4343 0019078 134.7701 225.5079 15.02061674 48338
Epoch: 2026-04-12T02:49Z
TLE epoch observation values (Epoch: 2026-04-12T02:49:47.449Z)
Latitude
-0.00007°
Longitude
-88.34086°
Altitude
572.892 km
Speed
7.569 km/s
True Right ascension
10h 17m 44s
True Declination
0° 00' 00"
Sunlit
Object was in full shadow at epoch
Visualization orbit readout
Latitude
Unknown
Longitude
Unknown
Altitude
Unknown
Speed
Unknown
Apparent Right ascension
Unknown
Apparent Declination
Unknown
Sunlit
N/A
Visualization observer readout
Local Sidereal Time
19:43:15
Azimuth
Unknown
Elevation
Unknown
Doppler factor
Unknown
Orbital elements
Apogee altitude
570.771 km
Perigee altitude
544.307 km
Semi-major axis
6,935.676 km
Eccentricity
0.00191
Inclination
97.6162°
RAAN
154.4343°
Arg. of periapsis
134.7701°
True anomaly
225.35221°
Mean anomaly
225.5079°
Eccentric anomaly
225.43003°
Mean motion
3.7576 °/min
Orbital period
95.81 mins
BSTAR
0.00086768
Loading maneuver chart data...
Computing Atmospheric mass density...
Loading historical data...
Loading historical data...
Loading historical data...
Loading historical data...
Loading historical data...
Loading historical data...
Loading historical data...

Documentation

Showing up to 5 results
|